Location: Pedimozza
(42.0500°N, 9.3500°E)
Time: 16:35:41
(UTC+00:00)

Shenzhou-11 Module - Pass Details

Date: 19 August 2019
Orbit: 315 x 326 km, 42.8° (Epoch: 15 October)

Event Time Altitude Azimuth Distance (km) Brightness Sun altitude
Rises 19:34:24 0° 232° (SW) 2,074 6.0 -13.7°
Reaches altitude 10° 19:36:30 10° 221° (SW) 1,238 4.7 -14.1°
Enters shadow 19:38:49 31° 166° (SSE) 603 2.6 -14.4°
